Location: Abule Alagbede
(8.5667°N, 4.3833°E)
Time: 00:44:12
(UTC+00:00)

Daily predictions for brighter satellites

Satellite Brightness Start Highest point End
(mag) Time Altitude Azimuth Time Altitude Azimuth Time Altitude Azimuth
Cosmos 2322 Rocket 3.8 02:40:10 30° E 02:40:10 30° E 02:44:18 10° NE
Cosmos 2297 Rocket 4.1 02:37:14 10° N 02:39:13 22° N 02:39:13 22° N
CZ-3 R/B 4.2 02:41:45 45° WSW 02:57:40 82° NNW 03:09:53 10° ENE
Cosmos 2221 4.3 03:02:19 10° NNE 03:06:02 28° E 03:06:28 27° E
SL-16 R/B 2.5 03:07:03 63° NNE 03:07:03 63° NNE 03:11:47 10° NNE
H-2A R/B 3.8 03:13:07 26° N 03:13:07 26° N 03:15:03 10° N
PAYLOAD A 4.5 03:07:48 10° NNE 03:11:58 52° E 03:11:58 52° E
Cosmos 2227 Rocket 3.3 03:12:36 10° NNW 03:15:35 33° NNW 03:15:35 33° NNW
Centaur AC-72 3.9 03:17:33 40° WSW 03:24:03 75° SSE 03:30:38 10° ENE
SL-8 Rocket 4.2 03:21:29 33° SSE 03:24:25 67° E 03:30:39 10° N
CBERS 1 LM4 rocket 4.5 03:19:21 10° N 03:24:16 76° NNW 03:24:16 76° NNW
STARLINK-1277 4.5 03:26:13 47° NE 03:26:13 47° NE 03:29:15 10° NE
MSX 4.2 03:22:35 10° N 03:27:19 47° NW 03:27:19 47° NW
STARLINK-1276 4.2 03:31:00 54° NE 03:31:00 54° NE 03:34:14 10° NE
STARLINK-1305 4.0 03:35:46 58° NNE 03:35:46 58° NNE 03:39:10 10° NNE
Cosmos 1408 4.0 03:38:57 31° N 03:38:57 31° N 03:41:00 10° N
Lacrosse 4 Rocket 3.8 03:35:46 10° NNE 03:39:03 22° ENE 03:42:17 10° ESE
STARLINK-1262 3.9 03:40:33 59° N 03:40:33 59° N 03:44:07 10° NNE
Meteor 1-27 4.1 03:35:36 10° NNW 03:41:02 58° W 03:41:31 56° WSW
CZ-4B R/B 3.5 03:42:20 10° SE 03:44:55 25° ENE 03:47:30 10° NNE
STARLINK-1300 3.9 03:45:20 55° NNW 03:45:20 55° NNW 03:49:02 10° NNE
Cosmos 2360 Rocket 2.3 03:42:25 30° S 03:45:12 70° ESE 03:50:46 10° NNE
Ariane H10 4.3 03:49:33 16° SSE 03:49:33 16° SSE 03:50:30 10° SE
Cosmos 1484 Rocket 4.5 03:45:23 10° NE 03:48:57 32° E 03:52:27 10° SSE
STARLINK-1295 4.0 03:50:07 48° NW 03:50:07 48° NW 03:53:57 10° NNE
Ariane H10+ 2.9 03:51:23 17° SSE 03:51:23 17° SSE 03:53:15 10° SE
Cosmos 1825 2.0 03:51:22 75° WNW 03:51:22 75° WNW 03:54:58 10° N
Cosmos 1937 Rocket 4.3 03:46:44 10° NNW 03:50:14 33° WNW 03:50:14 33° WNW
Cosmos 2285 Rocket 4.1 03:46:06 10° NNW 03:52:10 51° W 03:58:13 10° S
ARIANE 5 R/B 4.4 03:42:38 27° WSW 03:52:46 59° S 03:57:14 10° ESE
IUS-26 SRM-1 2.5 03:53:28 70° S 03:53:40 74° SSE 04:00:12 10° ENE
Cosmos 1842 Rocket 4.3 03:49:45 10° NNW 03:52:55 36° WNW 03:52:55 36° WNW
STARLINK-1287 4.1 03:54:56 42° NW 03:54:57 42° NW 03:58:52 10° NNE
Meteor 2-2 Rocket 4.3 03:53:04 10° N 03:59:02 74° W 04:04:59 10° S
ADEOS 3.8 03:55:57 10° N 04:00:57 50° WNW 04:02:50 34° SW
Okean 3 Rocket 3.5 03:59:57 31° SSW 04:02:00 73° W 04:06:29 10° N
Ariane H10+ 4.1 04:02:29 21° SSW 04:04:34 27° SSE 04:15:04 10° ESE
ATLAS 3B CENTAUR R/B 2.0 04:05:55 21° NNW 04:07:14 38° NNE 04:11:11 10° ESE
Cosmos 2366 rocket 4.0 04:03:48 18° SSW 04:08:18 59° W 04:14:22 10° N
CZ-2C R/B 3.2 04:05:07 10° NNW 04:09:48 35° WNW 04:11:28 28° WSW
Cosmos 2219 Rocket 3.8 04:06:06 10° SSE 04:11:02 32° ESE 04:15:56 10° NE
STARLINK-53 4.3 04:11:45 19° S 04:14:13 46° ESE 04:18:00 10° NE
Cosmos 2237 4.4 04:12:15 24° SW 04:15:30 51° WNW 04:21:01 10° N
Delta 2 Rocket 4.3 04:13:21 23° W 04:17:05 54° NNW 04:23:33 10° NE
MAQSAT/ARIANE V 4.2 04:16:30 10° S 04:18:23 13° SE 04:21:30 10° ESE
Spot 2 3.8 04:15:39 10° N 04:19:39 80° WNW 04:23:38 11° SSW
FUSE 4.1 04:17:49 24° W 04:21:05 66° NNW 04:26:26 10° ENE
Cosmos 2322 Rocket 3.6 04:22:02 17° W 04:23:13 18° WNW 04:27:01 10° NNW
COSMOS 2428 3.8 04:23:30 10° S 04:28:54 45° ESE 04:34:17 10° NNE
SWIFT 3.7 04:26:36 10° NW 04:30:25 35° NNE 04:34:16 10° E
STARLINK-1023 4.3 04:27:13 11° SSW 04:31:05 51° ESE 04:35:07 10° NE
Cosmos 1821 Rocket 4.3 04:25:58 10° S 04:32:20 76° E 04:38:42 10° N
Cosmos 1408 Rocket 3.5 04:29:02 10° SSW 04:33:23 64° W 04:37:40 10° N
STARLINK-25 3.4 04:33:29 13° SSW 04:36:48 84° SE 04:40:37 10° NE
STARLINK-1007 4.0 04:33:05 10° SSW 04:37:07 62° SE 04:41:11 10° NE
Meteor PRIRODA 3.5 04:33:59 10° N 04:37:38 75° W 04:41:16 10° SSW
GPS 2-12 Rocket1 3.4 04:36:47 12° W 04:41:05 50° SSW 04:45:44 10° SE
STARLINK-1048 3.8 04:37:58 10° SSW 04:42:05 72° ESE 04:46:12 10° NE
Cosmos 2263 Rocket 2.8 04:36:51 10° N 04:42:19 60° ENE 04:47:46 10° SSE
SWARM C 4.4 04:40:58 10° N 04:44:17 86° W 04:47:36 10° S
SWARM A 4.1 04:41:05 10° N 04:44:23 71° W 04:47:42 10° S
Meteor 2-3 Rocket 3.8 04:39:43 10° SSW 04:45:20 62° W 04:50:54 10° N
Cosmos 1727 Rocket 4.3 04:39:34 10° N 04:45:43 73° E 04:51:51 10° S
STARLINK-1049 3.6 04:42:56 10° SSW 04:47:04 85° SE 04:51:12 10° NE
Cosmos 2227 4.3 04:41:35 10° NNW 04:47:20 86° ENE 04:53:05 10° SSE
PSLV R/B 4.3 04:45:20 10° SSE 04:49:21 70° ENE 04:53:22 10° N
STARLINK-1051 3.6 04:47:53 10° SW 04:52:01 83° NW 04:56:08 10° NNE
Meteor 1-31 Rocket 4.3 04:49:24 10° NNW 04:52:06 19° WNW 04:54:49 10° WSW
GPS 2-04 Rocket1 2.8 04:48:40 10° WNW 04:52:50 66° SW 04:56:58 10° SE
SJ-12 4.2 04:48:57 10° N 04:52:56 50° WNW 04:56:56 10° SSW
ARIANE 5 R/B 2.1 04:51:08 11° SW 04:52:58 28° S 04:57:29 10° ESE
STARLINK-81 3.7 04:49:35 10° SW 04:53:29 58° NW 04:57:21 10° NNE
ARIANE 5 R/B 1.9 04:51:18 10° WSW 04:54:02 55° S 05:01:18 10° E
ATLAS 5 CENTAUR R/B 3.9 04:52:05 10° SSE 04:55:04 19° ESE 04:57:59 10° ENE
STARLINK-1234 4.1 04:52:38 10° WNW 04:55:05 21° WSW 04:57:33 10° S
STARLINK-54 3.9 04:51:32 10° SW 04:55:19 46° NW 04:59:07 10° NNE
STARLINK-1228 4.3 04:52:59 10° WNW 04:55:35 21° WSW 04:58:11 10° S
STARLINK-1212 3.5 04:53:37 10° WNW 04:56:28 34° WSW 04:59:20 10° S
STARLINK-77 3.8 04:52:56 10° SW 04:56:46 51° NW 05:00:36 10° NNE
STARLINK-1105 3.5 04:54:06 10° WNW 04:56:55 33° SW 04:59:46 10° S
STARLINK-1209 4.4 04:55:30 10° WNW 04:57:47 18° WSW 05:00:04 10° S
STARLINK-1247 3.6 04:55:03 10° WNW 04:57:52 32° WSW 05:00:42 10° S
STARLINK-1227 3.6 04:55:30 10° WNW 04:58:18 32° SW 05:01:06 10° S
H-2A R/B 3.1 04:54:16 10° N 04:58:19 40° WNW 05:02:30 10° SSW
CZ-3A R/B 4.3 04:51:46 10° W 04:58:33 66° NNW 05:33:50 10° ENE
STARLINK-1226 3.6 04:56:22 10° WNW 04:59:10 31° WSW 05:01:58 10° S
Cosmos 2333 Rocket 2.3 04:56:19 10° SSW 05:01:53 62° WNW 05:07:27 10° N
